Regional Weather Roundup
Issued by NWS

Home | Current Version | Previous Version | Graphics & Text | Print | Product List | Glossary On
Versions: 1 2 3 4 5 6 7 8 9 10 11 12 13 14 15 16 17 18 19 20 21 22 23 24 25 26 27 28 29 30 31 32 33 34 35 36 37 38 39 40 41 42 43 44 45 46 47 48
000
ASUS43 KDMX 140707
RWRIA

WEATHER ROUNDUP FOR IOWA
NATIONAL WEATHER SERVICE DES MOINES IA
200 AM CDT SUN SEP 14 2014

NOTE: "FAIR" INDICATES FEW OR NO CLOUDS BELOW 12,000 FEET WITH NO
SIGNIFICANT WEATHER AND/OR OBSTRUCTIONS TO VISIBILITY.

* - THESE STATIONS ARE NOT NWS STATIONS...THUS NOT UNDER NWS
QUALITY CONTROL.  THEY ALSO DO NOT REPORT WEATHER SUCH
AS PRECIPITATION OR FOG.

IAZ001>003-012>014-020>022-031>034-043>046-140800-
   NORTHWEST IOWA

CITY           SKY/WX    TMP DP  RH WIND       PRES   REMARKS
CARROLL *      CLOUDY    50  46  87 S7        30.22S
CHEROKEE *     CLEAR     45  45 100 S3        30.18S
DENISON *      MOCLDY    50  45  81 S8G14     30.19S
LE MARS *        N/A     46  45  93 CALM      30.18R
ORANGE CITY *  CLEAR     46  43  87 S5        30.17S
SHELDON *      CLEAR     45  43  93 S7        30.15S
SIOUX CITY     CLEAR     47  44  90 SE5       30.18S
SPENCER        PTCLDY    45  42  89 S6        30.17F
STORM LAKE *   CLEAR     46 N/A N/A S7        30.19S
$$

IAZ055>058-069>071-079>083-090>094-140800-
   SOUTHWEST IOWA

CITY           SKY/WX    TMP DP  RH WIND       PRES   REMARKS
ATLANTIC *     CLOUDY    50  45  81 S7        30.23F
AUDUBON *      PTCLDY    50  45  81 S5        30.24S
CLARINDA *     CLOUDY    48  46  93 CALM      30.26S
COUNCIL BLFS * CLOUDY    52  48  87 SE6       30.21S
CRESTON *      CLOUDY    48  43  81 S7        30.26S
HARLAN  *      CLOUDY    46  45  93 CALM      30.26S
LAMONI         CLEAR     48  41  76 SE7       30.27S
SHENANDOAH *   CLOUDY    54  46  76 CALM      30.24S
$$

IAZ047>049-059>061-072>074-084-140800-
   CENTRAL IOWA

CITY           SKY/WX    TMP DP  RH WIND       PRES   REMARKS
AMES           CLOUDY    46  45  96 SE3       30.25S
ANKENY *       CLOUDY    48  46  93 SE3       30.26S
CHARITON *     CLEAR     45  41  87 S6        30.27F
DES MOINES     CLOUDY    50  43  77 S8        30.26F
GRINNELL*      CLEAR     43  39  87 S5        30.28F
KNOXVILLE *    CLEAR     45  41  87 S5        30.27S
MARSHALLTOWN   CLOUDY    46  42  86 SE7       30.26S
PELLA *        CLEAR     43  41  93 SE5       30.29S
PERRY *        CLOUDY    48  46  93 S5        30.24S
$$

IAZ004>006-015-016-023>025-035-036-140800-
   NORTH CENTRAL IOWA

CITY           SKY/WX    TMP DP  RH WIND       PRES   REMARKS
ALGONA *       CLOUDY    50  45  81 S8        30.20S
CLARION *        N/A     48  43  81 S9        30.22F
ESTHERVILLE    CLEAR     44  41  89 S8        30.17S
FORT DODGE *   CLOUDY    52  41  66 S9        30.22F
MASON CITY     CLOUDY    45  43  93 S7        30.23F
FOREST CITY *  CLOUDY    46  45  93 S6        30.21S
IOWA FALLS *   CLOUDY    46  43  87 S6        30.25S
$$

IAZ007>011-017>019-026>030-037>042-050>054-066-140800-
   NORTHEAST IOWA

CITY           SKY/WX    TMP DP  RH WIND       PRES   REMARKS
CEDAR RAPIDS   CLEAR     39  39 100 SE3       30.29S
CHARLES CITY * CLOUDY    45  41  87 S8        30.25S
CLINTON *      CLEAR     39  36  87 E3        30.34R
DECORAH *      CLOUDY    43  39  87 S6        30.25S
DUBUQUE        CLEAR     40  37  89 S5        30.30S
MONTICELLO *   CLEAR     37  37 100 CALM      30.30S
OELWEIN *      CLEAR     39  37  93 S7        30.28S WCI  34
WATERLOO       CLEAR     44  40  85 S6        30.26S
$$

IAZ064-065-067-068-078-140800-
   EAST CENTRAL IOWA

CITY           SKY/WX    TMP DP  RH WIND       PRES   REMARKS
DAVENPORT      CLEAR     42  38  85 CALM      30.32R
IOWA CITY      CLEAR     42  39  89 CALM      30.31S
MT. PLEASANT * CLEAR     43  39  87 CALM      30.31R
MUSCATINE *    CLEAR     41  39  93 CALM      30.32R
QUAD CITIES    CLEAR     41  38  89 CALM      30.32R
$$

IAZ062-063-075>077-085>089-095>099-140800-
   SOUTHEAST IOWA

CITY           SKY/WX    TMP DP  RH WIND       PRES   REMARKS
BURLINGTON     CLEAR     42  41  96 CALM      30.31R
FAIRFIELD *    CLEAR     41  39  93 CALM      30.30S
FORT MADISON * CLEAR     46  43  87 CALM      30.31S
KEOKUK *       FOG       43  43 100 CALM      30.30R VSB 1/2
OSKALOOSA *      N/A     43  41  93 SE5       30.29F
CENTERVILLE *  CLEAR     37  37 100 SE3       30.30S
OTTUMWA        CLEAR     42  40  92 S6        30.29S
WASHINGTON *   CLEAR     41  39  93 CALM      30.31R
$$

ABBREVIATIONS USED IN REMARKS
   TC - TEMPERATURES IN CELSIUS
  WCI - WIND CHILL INDEX
   HX - HEAT INDEX
  VSB - VISIBILITY
$$



USA.gov is the U.S. government's official web portal to all federal, state and local government web resources and services.